Location: Praha
(50.0830°N, 14.4670°E)
Time: 16:46:02
(UTC+02:00)

ISS - Pass Details

Date: 16 May 2022
Orbit: 414 x 421 km, 51.6° (Epoch: 28 May)

Event Time Altitude Azimuth Distance (km) Brightness Sun altitude
Rises 02:32:01 0° 287° (WNW) 2,356 0.0 -17.8°
Reaches altitude 10° 02:34:08 10° 283° (WNW) 1,491 -1.1 -17.7°
Enters shadow 02:34:52 16° 280° (W) 1,201 -1.6 -17.7°
Exits shadow 02:39:39 18° 133° (SE) 1,090 -1.8 -17.3°
Drops below altitude 10° 02:40:40 10° 128° (SE) 1,483 -1.1 -17.3°
Sets 02:42:46 0° 123° (ESE) 2,343 0.0 -17.1°
